World > North America > United States > North Carolina

Shawboro, North Carolina Regional Weather

Lat: 36.41N, Lon: 76.09W
Wx Zone: NCZ017
Warning FLW WEATHER ALERT - (More Info. Click Here) Warning
Feedback

Shawboro, NC Regional Weather

Expires:201907222300;;477415
ASUS41 KAKQ 222215
RWRAKQ

REGIONAL WEATHER ROUNDUP
NATIONAL WEATHER SERVICE WAKEFIELD VA
600 PM EDT MON JUL 22 2019

Note: "fair" indicates few or no clouds below 12,000 feet with no
significant weather and/or obstructions to visibility. * = Denotes
station may not report precipitation (e.g., rain,snow,etc.),
thunder or fog.


NCZ012>017-030>032-222300-
NORTH CENTRAL AND EASTERN NORTH CAROLINA
  
CITY           SKY/WX    TMP DP  RH WIND       PRES   REMARKS
ROANOKE RAPIDS FAIR      91  79  66 W7        29.85F HX 107           
RALEIGH        CLOUDY    94  65  38 SW16G25   29.87S HX  96           
ELIZABETH CITY FAIR      93  76  57 S14G21    29.85F HX 105           
AHOSKIE*       FAIR      89  71  55 SW3       29.85S HX  95           
EDENTON*       FAIR      94  78  59 S16G22    29.86F HX 109           
CURRITUCK*     FAIR      92  75  57 MISG      29.85S HX 103           
KILL DEVIL HLS FAIR      90  75  61 S6G17     29.87S HX  99           
MANTEO         FAIR      89  76  66 SW25      29.88F HX 100           
CAPE HATTERAS  FAIR      85  78  80 SW15G23   29.93F HX  96           
TARBORO*       NOT AVBL                                               
GOLDSBORO      FAIR      94  70  45 SW13G24   29.86F HX 101           
WASHINGTON     FAIR      93  73  52 S12G20    29.88S HX 102           
GREENVILLE     FAIR      91  70  49 S16       29.89S HX  97           
NEW BERN       FAIR      90  73  57 S20G26    29.91F HX  98           
WILMINGTON     FAIR      89  69  51 S18G24    29.94S                  
$$


SKY/WX - Weather  TMP - Temperature  DP - Dew Point  RH - Relative Humidity
WIND - Wind Direction/Speed PRES - Barometric Pressure VSB - Visibility
WCI - Wind Chill Index E13G22 Wind - East Wind 13 mph/Gusts of 22 mph